This demonstration page uses our WeatherBlox Daily Observations layout. Learn more.

Left ArrowRight Arrow

Hourly Observations for November 18, 2018

Temp ( °F °C ) Dew Point ( °F °C ) Humidity (%) Winds ( mph kmh ) Pressure ( in mb ) Visibility ( mi km ) Precip ( " mm )
12:53 am 00:53 Clear 37 2.8 30 -1.1 76 76 NE 9 15 30.16 1021 10 16 0.00 0.00
1:53 am 01:53 Clear 35 1.7 30 -1.1 82 82 NNE 12 19 30.18 1022 10 16 0.00 0.00
2:53 am 02:53 Clear 34 1.1 29 -1.7 82 82 NNE 15 24 30.20 1023 10 16 0.00 0.00
3:53 am 03:53 Clear 32 0 28 -2.2 85 85 NNE 8 13 30.20 1023 10 16 0.00 0.00
4:43 am 04:43 Mostly Cloudy 33 0.6 28 -2.2 82 82 NNE 6 9 30.36 1028 10 16 0.00 0.00
4:53 am 04:53 Cloudy 33 0.6 28 -2.2 82 82 NNE 7 11 30.23 1024 10 16 0.00 0.00
5:07 am 05:07 Cloudy 33 0.6 29 -1.7 85 85 NNE 5 7 30.36 1028 10 16 0.00 0.00
5:53 am 05:53 Cloudy 34 1.1 28 -2.2 79 79 NE 10 17 30.27 1025 10 16 0.00 0.00
6:53 am 06:53 Cloudy 34 1.1 28 -2.2 79 79 NE 12 19 30.29 1026 10 16 0.00 0.00
7:53 am 07:53 Cloudy 34 1.1 28 -2.2 79 79 NNE 9 15 30.30 1026 10 16 0.00 0.00
8:09 am 08:09 Cloudy 35 1.7 28 -2.2 76 76 NNE 9 15 30.42 1030 10 16 0.00 0.00
8:53 am 08:53 Cloudy 35 1.7 27 -2.8 72 72 NNE 7 11 30.34 1027 10 16 0.00 0.00
9:53 am 09:53 Cloudy 36 2.2 28 -2.2 73 73 ENE 3 6 30.35 1028 10 16 0.00 0.00
10:53 am 10:53 Cloudy 38 3.3 28 -2.2 68 68 ENE 6 9 30.34 1028 10 16 0.00 0.00
11:53 am 11:53 Mostly Cloudy 42 5.6 28 -2.2 58 58 undefined N/A 30.31 1026 10 16 0.00 0.00
12:41 pm 12:41 Mostly Cloudy 43 6.1 29 -1.7 58 58 NNW 5 7 30.30 1026 10 16 0.00 0.00
12:53 pm 12:53 Mostly Cloudy 44 6.7 29 -1.7 55 55 NNW 7 11 30.26 1025 10 16 0.00 0.00
1:21 pm 13:21 Cloudy 44 6.7 29 -1.7 55 55 NNW 9 15 30.27 1025 10 16 0.00 0.00
1:53 pm 13:53 Cloudy 45 7.2 29 -1.7 54 54 N 8 13 30.22 1023 10 16 0.00 0.00
2:53 pm 14:53 Cloudy 46 7.8 30 -1.1 54 54 NE 7 11 30.20 1023 10 16 0.00 0.00
3:53 pm 15:53 Mostly Cloudy 46 7.8 30 -1.1 54 54 VRB 3 6 30.18 1022 10 16 0.00 0.00
4:02 pm 16:02 Partly Cloudy 47 8.3 30 -1.1 52 52 Calm 30.21 1023 10 16 0.00 0.00
4:53 pm 16:53 Sunny 46 7.8 31 -0.6 56 56 Calm 30.17 1022 10 16 0.00 0.00
5:53 pm 17:53 Clear 45 7.2 30 -1.1 56 56 Calm 30.17 1022 10 16 0.00 0.00
6:53 pm 18:53 Clear 41 5 30 -1.1 65 65 Calm 30.17 1022 10 16 0.00 0.00
7:53 pm 19:53 Clear 39 3.9 31 -0.6 73 73 Calm 30.19 1022 10 16 0.00 0.00
8:53 pm 20:53 Clear 38 3.3 30 -1.1 73 73 Calm 30.19 1022 10 16 0.00 0.00
9:53 pm 21:53 Clear 36 2.2 29 -1.7 76 76 SSW 3 6 30.19 1023 10 16 0.00 0.00
10:53 pm 22:53 Clear 35 1.7 30 -1.1 82 82 Calm 30.19 1023 10 16 0.00 0.00
11:53 pm 23:53 Clear 31 -0.6 27 -2.8 85 85 Calm 30.18 1022 10 16 0.00 0.00

Powered by AerisWeather